Погода в Стараховице

Польша     51°02′55″N   21°03′58″E
темп.,
°C
ветер,
м/с
пор.,
м/с
влажн.,
%
обл.,
%
осадки,
мм/ч
давл.,
гПа
погр.,
м
1 марта, пн
пн101:00+2ссз499195 0.0 1032596
04:00+2ссз3695100 0.0 1033351
07:00+1ссз2596100 0.0 1034258
10:00+3ссз238495 0.0 1035427
13:00+4сз347498 0.0 1036632
16:00+4з347880 0.0 1035550
19:00+1з239363 0.0 103665
22:000з26960 0.0 1035174
2 марта, вт
вт201:00+1з38953 0.0 1036213
04:00+1з39941 0.0 1034235
07:00+1з39921 0.0 1034256
10:00+6зсз49690 0.0 1033392
13:00+9зсз59590 0.0 1032566
16:00+9зсз410610 0.0 1031530
19:00+5зсз310800 0.0 1032306
22:00+3зсз23900 0.0 103352
3 марта, ср
ср301:00+2зсз12910 0.0 103322
04:00+1з12910 0.0 103222
07:00+1зюз12900 0.0 103122
10:00+7з12630 0.0 1030367
13:00+10зюз23490 0.0 1028642
16:00+9зюз24570 0.0 1025419
19:00+5ююз227112 0.0 102426
22:00+5юз4107464 0.0 1022243
4 марта, чт
чт401:00+4зюз4117852 0.0 1021299
04:00+3зюз413860 0.0 1018363
07:00+3зюз4128617 0.0 1017333
10:00+8з6116944 0.0 1014679
13:00+10з6106472 0.0 10131146
16:00+9з51070100 0.0 10101143
19:00+7з41082100 0.1 1010919
22:00+6зсз3790100 0.9 1009633
5 марта, пт
пт501:00+4ссз4896100 3.3 1009494
04:00+1сз4895100 1.5 1010480
07:00−2с5989100 2.0 1013645
10:000с6866100 0.1 1016921
13:00+2с574365 0.1 10171541
16:00+1ссз46468 0.0 10191730
19:00−1сз39595 0.1 1022452
22:00−2сз276865 0.0 1024318